Temperature
8 10 10 9 9 10 10 10 10 9 7 7 8 8 7 5 4 4 3 2 2 2 2 2 3 3 3 3 3 3 4 4 4 4 4 4 4 4 4 4 4 4 4 4
9 9 7 7 7 8 8 9 9 8 6 7 7 7 7 5 4 3 3 2 1 1 1 2 2 2 2 3 3 3 3 3 3 3 3 3 3 3 3 3 3 3 3 3
9 7 6 6 7 7 7 8 8 8 7 6 6 8 7 5 3 2 2 1 1 0 1 1 1 2 2 2 2 2 2 2 2 2 2 2 2 2 2 2 2 2 2 2
7 5 5 6 6 7 8 6 6 6 7 8 7 9 8 5 4 3 2 1 1 -0 0 0 1 1 1 1 2 2 2 2 1 1 1 1 1 1 1 1 1 2 2 2
5 4 5 6 5 5 6 4 5 5 6 6 6 7 9 4 5 4 3 1 0 -0 -1 -1 -0 0 1 1 1 1 1 1 1 1 1 0 0 0 0 0 1 1 1 1
4 3 4 4 4 4 4 4 4 4 5 6 6 6 8 6 5 4 3 1 -0 -1 -1 -1 -1 -0 -0 0 0 0 0 0 0 -0 -0 -0 -0 -0 -0 -0 -0 0 0 0
5 4 3 3 4 4 4 6 7 7 7 7 3 4 6 5 3 2 1 0 -1 -1 -2 -2 -1 -1 -1 -1 -0 -0 -1 -1 -1 -1 -1 -1 -1 -1 -1 -1 -1 -1 -1 -1
7 6 3 3 3 4 4 5 7 8 8 8 3 5 6 2 0 -1 -1 -2 -2 -2 -2 -2 -2 -1 -1 -1 -1 -1 -1 -1 -1 -1 -1 -1 -2 -2 -2 -2 -2 -2 -2 -2
7 6 2 1 2 3 4 4 4 5 3 4 6 5 4 1 0 -1 -1 -2 -2 -2 -2 -2 -2 -2 -2 -2 -2 -2 -2 -2 -2 -2 -2 -2 -2 -2 -2 -2 -2 -2 -2 -2
5 4 2 1 1 1 2 3 3 4 5 6 7 6 6 3 2 0 -1 -2 -3 -3 -3 -3 -2 -2 -2 -2 -2 -2 -2 -2 -2 -2 -2 -2 -2 -3 -3 -3 -3 -3 -3 -3
3 4 2 1 1 2 1 2 3 4 4 5 6 7 4 3 2 0 -1 -2 -3 -4 -3 -3 -3 -3 -3 -3 -3 -3 -3 -3 -3 -3 -3 -3 -3 -3 -3 -4 -4 -4 -4 -3
2 3 3 2 -0 -1 1 2 2 3 3 2 5 6 1 0 -1 -2 -2 -3 -4 -4 -4 -3 -3 -3 -3 -3 -3 -3 -3 -3 -3 -3 -3 -3 -3 -4 -4 -4 -4 -4 -4 -4
0 2 3 3 1 -1 -1 -1 -0 0 1 2 4 5 -1 -2 -2 -3 -4 -4 -4 -4 -4 -4 -4 -4 -4 -4 -4 -4 -4 -4 -4 -4 -4 -4 -4 -4 -4 -4 -4 -4 -4 -4
0 1 3 5 4 1 -1 -2 -2 -1 1 2 2 3 1 -0 -2 -3 -4 -4 -5 -5 -5 -5 -5 -5 -4 -4 -4 -4 -4 -4 -4 -4 -4 -4 -5 -5 -5 -5 -5 -5 -5 -5
0 1 -0 0 -0 -1 -1 -1 -2 -2 1 2 2 1 1 -0 -2 -3 -4 -5 -5 -5 -5 -5 -5 -5 -5 -5 -5 -5 -5 -5 -5 -5 -5 -5 -5 -5 -5 -5 -6 -6 -6 -6
-1 -1 -2 -1 -2 -2 -2 -2 -2 -2 -2 -1 -1 -1 -1 -3 -4 -5 -5 -6 -6 -6 -6 -6 -5 -5 -5 -5 -5 -5 -5 -5 -5 -6 -6 -6 -6 -6 -6 -6 -6 -6 -6 -6
-2 -2 -1 1 -2 -3 -0 -2 -3 -3 -4 -3 -1 -1 -3 -4 -5 -5 -5 -6 -6 -6 -6 -6 -6 -6 -6 -6 -6 -6 -6 -6 -6 -6 -6 -6 -6 -6 -7 -7 -7 -7 -7 -7
-3 -2 -1 -1 -2 -0 1 -4 -3 -4 -4 -4 -4 -4 -4 -5 -6 -6 -6 -6 -6 -6 -6 -6 -6 -6 -6 -6 -6 -6 -6 -6 -6 -6 -7 -7 -7 -7 -7 -7 -7 -7 -7 -7
-3 -2 -1 -1 -0 1 -1 -4 -5 -4 -3 -4 -5 -5 -6 -7 -7 -6 -6 -6 -6 -6 -6 -6 -6 -6 -6 -7 -7 -7 -7 -7 -7 -7 -7 -7 -7 -7 -8 -8 -8 -8 -8 -8
-5 -4 -2 -2 -0 1 0 -5 -7 -4 -2 -4 -6 -6 -7 -7 -3 -3 -6 -6 -7 -7 -7 -7 -7 -7 -7 -7 -7 -7 -7 -7 -7 -7 -8 -8 -8 -8 -8 -8 -8 -8 -8 -8
-4 -4 -3 -2 -1 -0 -3 -7 -6 -2 -1 -5 -6 -6 -7 -7 -5 -6 -7 -7 -7 -7 -7 -7 -7 -7 -7 -7 -8 -8 -8 -8 -8 -8 -9 -9 -9 -9 -9 -9 -9 -9 -9 -9
-3 -3 -4 -3 -2 -1 -7 -7 -4 -3 -5 -5 -6 -6 -7 -7 -7 -7 -7 -8 -8 -8 -8 -8 -8 -8 -8 -8 -8 -8 -8 -8 -9 -9 -9 -9 -9 -9 -9 -10 -9 -10 -10 -10
-4 -4 -3 -3 -2 -5 -7 -6 -6 -6 -6 -6 -6 -6 -7 -7 -8 -8 -8 -8 -8 -8 -8 -9 -9 -9 -9 -9 -9 -9 -9 -9 -9 -9 -9 -10 -10 -10 -10 -10 -10 -10 -10 -10
-6 -8 -6 -6 -5 -6 -7 -7 -6 -6 -6 -6 -6 -7 -7 -8 -8 -8 -8 -9 -9 -9 -9 -9 -9 -9 -9 -9 -9 -9 -9 -10 -10 -10 -10 -10 -10 -10 -10 -10 -11 -11 -11 -11
-6 -8 -7 -6 -6 -7 -7 -7 -6 -7 -7 -7 -7 -8 -8 -8 -8 -9 -9 -9 -9 -9 -9 -10 -10 -10 -10 -10 -10 -10 -10 -10 -10 -10 -10 -11 -11 -11 -11 -11 -11 -11 -11 -11
-8 -8 -7 -5 -6 -7 -6 -6 -6 -7 -7 -7 -7 -8 -8 -8 -9 -9 -9 -9 -10 -10 -10 -10 -10 -10 -10 -10 -10 -10 -10 -11 -11 -11 -11 -11 -11 -11 -11 -11 -11 -11 -11 -11
Wind_Speed
1 3 5 5 5 2 2 5 7 4 0 3 8 10 8 5 7 7 7 6 5 5 3 2 1 1 1 2 2 3 3 3 2 1 1 1 1 2 2 3 5 5 5 5
3 3 2 2 3 3 3 5 6 4 0 3 7 11 8 6 7 8 8 7 6 5 3 2 1 1 1 1 1 2 2 2 2 1 1 1 1 1 2 3 4 5 5 5
4 1 1 4 4 4 4 6 5 4 3 3 5 8 7 5 5 6 7 7 6 6 5 4 2 1 1 1 1 1 1 1 2 2 1 1 1 1 1 2 3 5 5 5
2 1 2 3 3 4 5 2 3 3 4 4 3 6 6 5 6 6 7 7 7 6 5 4 3 2 1 0 1 1 1 2 2 2 1 1 0 1 2 2 3 4 4 5
2 1 2 3 2 3 1 1 1 2 4 5 5 6 6 3 6 7 7 7 6 6 5 4 4 3 2 1 1 1 2 2 3 2 1 0 1 1 1 2 3 3 3 4
2 1 0 1 2 2 4 2 2 1 2 6 6 7 6 4 5 4 5 4 5 5 4 4 3 2 1 1 1 1 1 2 2 2 2 1 1 1 2 2 3 3 3 3
2 1 1 1 2 2 2 2 2 3 4 5 3 6 7 2 2 3 3 3 3 4 4 3 3 3 2 1 0 0 0 1 1 1 1 2 2 2 2 3 3 3 3 3
4 3 2 1 2 3 4 3 3 4 5 4 3 7 4 0 1 1 2 2 2 3 3 3 3 3 3 2 1 1 1 0 1 1 1 2 2 2 2 3 3 3 3 4
4 3 2 1 1 2 4 4 2 1 2 5 6 5 4 2 1 1 1 2 2 2 3 3 3 3 3 2 2 2 2 1 1 1 2 2 2 2 3 3 3 3 4 4
2 3 1 0 1 1 1 3 3 4 4 7 7 7 5 4 4 3 2 2 2 1 2 2 2 3 2 2 2 2 2 2 2 2 2 2 2 2 3 3 3 4 4 5
2 3 2 2 5 5 4 4 4 3 3 5 7 5 1 3 3 4 3 2 2 2 2 1 1 1 2 2 2 2 2 2 2 2 2 2 2 2 2 2 3 4 4 5
2 2 3 3 1 2 3 5 6 5 5 5 6 6 2 2 2 2 2 2 2 2 1 1 1 1 1 1 2 2 2 2 2 3 3 2 2 2 2 3 3 4 4 4
5 4 2 2 3 2 4 4 5 3 3 6 7 7 3 1 2 2 3 3 2 2 1 1 1 1 2 2 2 2 2 2 3 3 2 2 2 2 3 3 3 3 4 4
4 4 6 8 3 4 5 6 7 7 7 9 12 13 7 4 4 4 4 3 3 3 2 2 2 2 2 2 2 3 3 3 3 3 2 2 3 3 3 3 3 4 4 4
3 4 5 7 5 4 7 9 11 13 12 12 11 12 12 8 7 6 5 4 4 4 3 3 3 3 3 3 3 3 3 3 3 3 3 3 3 3 3 3 3 4 4 4
2 3 3 5 5 5 8 11 13 14 13 14 14 15 10 6 3 4 5 5 5 5 5 4 4 4 4 3 3 4 4 3 3 3 3 3 3 3 3 3 4 4 4 4
5 5 4 5 2 4 9 10 12 8 8 9 12 10 4 4 5 6 6 5 6 6 5 5 5 5 5 4 4 4 4 3 3 3 3 3 3 3 4 4 4 4 4 5
6 5 3 3 2 8 4 1 6 9 9 10 9 8 6 6 6 6 6 6 6 6 5 5 5 4 4 4 4 4 4 3 3 3 4 3 3 4 4 4 4 5 4 5
4 5 4 3 5 8 4 3 5 6 7 8 11 10 6 3 4 4 4 5 5 6 5 5 5 4 4 4 4 3 3 3 3 4 4 4 4 4 4 4 5 5 5 5
2 2 4 4 5 7 2 3 2 3 5 3 6 7 5 2 4 3 0 2 3 4 4 3 3 3 3 3 3 3 3 4 4 5 5 4 4 4 5 5 5 5 5 5
4 4 7 8 8 7 0 4 5 5 3 1 5 5 5 5 4 2 1 2 2 3 3 2 2 3 3 3 2 4 4 5 5 4 4 4 4 4 5 5 5 5 5 5
7 7 7 6 8 8 5 7 7 3 1 1 3 4 5 5 3 3 3 3 3 3 2 2 2 3 3 2 3 4 5 5 4 4 4 4 4 4 4 4 4 4 4 5
7 6 5 8 6 1 7 6 3 1 2 3 3 3 4 4 4 4 3 3 3 3 3 2 3 4 4 3 3 5 5 4 4 4 4 4 4 4 4 4 4 4 4 4
5 2 4 6 7 4 5 5 4 4 4 4 4 4 4 5 5 4 4 4 4 3 3 3 3 4 5 4 4 5 5 4 3 4 4 4 4 4 4 4 4 4 4 4
4 4 4 7 6 4 5 6 6 5 5 5 5 5 5 5 5 5 5 5 4 4 3 3 4 5 5 5 5 4 4 3 3 4 4 4 4 4 4 4 4 5 5 5
5 6 6 7 4 4 4 4 5 5 6 6 5 5 5 5 6 5 5 5 4 4 4 4 4 5 5 5 5 4 3 3 3 4 4 3 3 3 4 4 4 6 7 9
Wind_Direction
85 174 196 203 215 237 206 224 245 252 242 255 247 255 254 222 216 218 212 207 207 210 205 180 145 90 64 56 54 48 44 41 47 32 5 2 350 12 21 20 17 10 0 352
149 209 210 142 160 178 205 235 252 256 239 266 271 267 256 231 220 220 218 214 211 205 194 181 151 106 81 66 59 57 46 42 38 19 5 339 333 353 11 11 12 4 356 352
184 109 138 157 158 192 224 236 247 265 287 237 285 263 229 216 218 221 221 218 214 209 203 192 181 162 120 71 37 23 38 46 34 29 47 57 45 360 348 346 354 356 350 348
155 116 162 169 192 218 238 223 233 253 262 259 259 271 235 214 217 218 219 216 214 208 205 198 192 190 183 150 36 33 33 45 35 36 48 81 352 317 316 321 327 343 346 345
150 132 164 200 221 214 183 98 215 248 243 263 234 249 257 200 230 228 220 214 211 206 202 199 197 196 191 159 82 50 51 43 33 32 34 31 324 311 317 325 322 331 341 340
111 103 17 133 85 129 130 115 104 168 224 251 230 231 259 215 230 233 218 213 207 202 201 198 192 189 185 161 108 72 72 48 32 28 21 352 322 325 324 324 319 321 325 332
151 150 106 114 135 136 180 197 242 235 228 243 169 233 255 245 240 245 237 222 205 198 196 198 198 204 208 207 199 155 118 37 19 10 356 335 320 310 310 317 314 315 314 319
204 215 173 175 200 191 196 221 229 251 258 271 213 240 255 359 291 269 253 234 207 199 200 207 214 217 222 225 222 220 243 284 331 333 320 319 315 309 310 313 310 306 307 311
212 211 104 79 1 204 181 204 268 247 280 270 248 255 268 206 229 232 224 206 212 211 208 214 217 221 228 230 230 235 246 269 294 297 300 305 310 307 307 310 308 308 312 315
197 207 182 144 164 56 268 160 170 201 240 257 259 253 246 216 228 219 221 224 223 217 224 226 220 227 234 241 245 248 245 253 273 291 300 307 316 313 310 309 310 312 312 312
188 196 183 188 206 204 171 182 205 209 248 252 265 257 203 220 212 214 220 222 224 223 238 247 258 266 261 255 254 255 266 275 288 297 298 301 305 308 306 305 308 309 309 308
174 197 226 217 131 319 228 216 198 217 227 233 260 267 100 192 199 213 230 237 230 228 240 241 258 282 300 288 278 273 281 288 294 297 297 298 304 296 293 298 302 303 302 302
156 175 213 222 201 199 224 218 213 218 218 223 239 255 119 163 229 243 250 251 242 240 248 244 254 267 279 296 295 277 277 288 299 302 300 301 305 306 301 304 306 307 303 303
158 196 227 249 273 186 216 214 203 202 224 238 240 256 259 254 268 273 266 250 243 240 238 244 263 275 280 287 295 293 284 287 294 295 292 291 296 301 307 314 318 317 310 307
177 224 234 259 267 231 235 226 206 214 230 242 254 257 268 276 271 270 269 255 246 246 247 255 265 272 275 285 293 295 295 291 288 286 287 289 296 302 307 311 313 313 311 307
188 217 222 257 244 245 257 246 228 230 238 246 262 268 274 286 267 258 257 251 249 254 259 266 269 270 270 275 283 288 288 290 279 275 284 294 298 298 300 305 307 307 305 304
182 184 212 252 249 277 259 238 217 214 218 220 240 253 268 271 265 266 262 252 250 261 269 267 265 266 267 268 268 270 275 279 270 270 283 288 290 291 296 302 301 299 299 300
175 183 216 254 236 245 254 134 202 217 234 226 242 260 264 270 288 281 259 246 256 264 268 272 269 268 269 269 269 270 270 263 263 269 276 280 283 287 295 296 295 296 296 294
194 188 206 224 250 267 261 188 180 206 253 224 233 252 266 288 294 271 240 238 254 265 267 269 263 260 263 265 268 263 262 261 262 265 271 274 275 280 287 289 290 293 293 292
125 189 211 214 242 254 248 141 159 180 255 209 214 238 241 209 262 274 196 269 275 279 276 274 272 267 263 267 263 250 256 260 262 266 269 270 269 269 274 281 286 289 286 287
174 193 214 225 241 262 211 146 158 205 262 180 212 225 212 217 254 288 281 286 281 285 284 277 270 266 266 270 256 253 256 258 266 271 270 269 268 268 270 276 279 282 284 287
195 193 203 205 226 247 148 155 196 239 17 208 225 224 223 238 252 256 264 275 277 284 290 281 277 281 283 267 249 257 263 271 273 266 264 268 271 272 273 275 280 281 281 283
214 213 209 208 227 346 168 195 225 253 245 244 240 234 225 237 246 253 261 265 272 273 276 276 275 286 289 273 252 258 271 278 266 261 263 267 271 271 271 269 274 278 276 276
220 217 227 247 257 247 221 236 251 244 250 257 252 239 219 228 240 251 257 262 268 268 267 267 268 277 285 283 272 266 277 271 253 257 266 269 269 272 271 267 264 264 266 270
236 191 222 248 265 283 248 236 248 253 259 260 260 250 237 233 242 248 256 260 264 268 269 262 260 269 279 287 283 280 277 262 255 259 263 266 265 269 271 267 263 261 260 263
217 210 220 246 240 236 257 250 238 241 249 245 245 253 252 239 241 248 255 260 262 265 267 266 266 270 278 284 285 286 276 256 254 263 266 265 265 269 271 276 281 272 268 275
Height
1510 1509 1509 1510 1513 1512 1512 1512 1511 1515 1522 1521 1516 1515 1517 1521 1522 1522 1523 1524 1524 1525 1526 1526 1526 1527 1527 1527 1528 1528 1528 1528 1528 1528 1528 1528 1528 1528 1527 1527 1527 1526 1526 1525
1509 1511 1515 1517 1517 1516 1515 1514 1512 1517 1522 1521 1517 1513 1514 1517 1518 1519 1520 1521 1522 1523 1523 1523 1524 1524 1525 1525 1525 1526 1526 1526 1526 1525 1525 1525 1525 1524 1524 1524 1523 1523 1522 1522
1506 1515 1517 1517 1517 1516 1516 1515 1514 1517 1520 1521 1518 1506 1509 1514 1516 1517 1518 1518 1519 1520 1520 1521 1521 1522 1522 1522 1523 1523 1523 1523 1523 1523 1523 1523 1522 1521 1521 1521 1520 1519 1519 1518
1513 1518 1518 1517 1517 1516 1514 1520 1520 1520 1516 1511 1517 1501 1499 1508 1512 1513 1514 1515 1516 1517 1518 1518 1518 1519 1519 1520 1521 1521 1521 1521 1520 1520 1520 1519 1519 1518 1517 1517 1516 1516 1515 1515
1515 1519 1518 1517 1519 1519 1518 1523 1522 1521 1518 1516 1516 1511 1495 1508 1506 1507 1510 1512 1513 1514 1515 1516 1516 1517 1517 1518 1518 1518 1518 1518 1518 1517 1517 1517 1516 1516 1515 1514 1513 1512 1512 1511
1519 1522 1521 1520 1522 1522 1524 1524 1523 1523 1518 1513 1512 1510 1492 1499 1501 1503 1507 1509 1511 1512 1513 1513 1514 1515 1515 1515 1516 1516 1515 1515 1515 1515 1514 1514 1513 1512 1512 1511 1510 1509 1508 1508
1516 1520 1522 1523 1521 1523 1522 1517 1511 1509 1508 1501 1519 1513 1498 1501 1504 1506 1507 1508 1509 1510 1511 1511 1512 1512 1513 1513 1513 1513 1513 1513 1512 1512 1511 1511 1510 1510 1508 1507 1506 1506 1505 1504
1507 1510 1521 1522 1520 1519 1520 1517 1510 1504 1497 1496 1517 1507 1497 1505 1506 1507 1507 1507 1507 1508 1508 1509 1509 1510 1510 1510 1510 1510 1510 1510 1510 1509 1508 1508 1507 1506 1505 1504 1503 1502 1501 1500
1504 1510 1523 1523 1523 1521 1519 1517 1520 1516 1522 1514 1497 1499 1500 1504 1505 1506 1506 1506 1506 1506 1506 1507 1507 1508 1508 1508 1508 1508 1508 1507 1507 1506 1505 1504 1503 1502 1502 1501 1500 1499 1498 1497
1510 1513 1521 1524 1524 1524 1523 1521 1520 1516 1509 1498 1492 1493 1489 1498 1500 1503 1504 1504 1504 1504 1505 1505 1505 1505 1506 1506 1506 1506 1505 1505 1504 1503 1502 1501 1500 1499 1498 1497 1496 1495 1494 1493
1513 1513 1519 1522 1521 1517 1523 1523 1518 1514 1513 1500 1490 1485 1493 1495 1498 1500 1502 1503 1503 1503 1503 1503 1503 1503 1503 1503 1503 1503 1503 1502 1501 1500 1500 1499 1498 1496 1495 1494 1493 1492 1491 1490
1515 1512 1512 1517 1524 1525 1521 1517 1517 1512 1511 1512 1498 1491 1497 1498 1499 1500 1501 1501 1501 1501 1501 1501 1501 1501 1501 1500 1500 1500 1499 1499 1498 1498 1497 1496 1495 1493 1492 1491 1490 1489 1487 1486
1515 1514 1509 1508 1519 1525 1522 1521 1521 1519 1514 1509 1500 1491 1499 1499 1500 1500 1500 1500 1499 1499 1499 1499 1499 1498 1498 1498 1497 1497 1497 1496 1496 1495 1494 1493 1492 1490 1489 1488 1487 1485 1484 1483
1514 1513 1507 1497 1497 1509 1516 1519 1521 1518 1508 1501 1497 1488 1493 1497 1498 1499 1498 1498 1497 1497 1497 1497 1496 1496 1495 1495 1495 1494 1494 1493 1493 1492 1491 1490 1489 1488 1486 1485 1484 1482 1481 1480
1513 1511 1512 1510 1511 1513 1511 1512 1516 1515 1504 1498 1490 1492 1490 1493 1496 1497 1496 1496 1495 1495 1494 1494 1493 1493 1492 1492 1492 1491 1491 1490 1489 1489 1488 1487 1486 1485 1483 1482 1481 1479 1478 1477
1512 1512 1514 1512 1512 1513 1511 1506 1508 1509 1506 1502 1498 1494 1491 1493 1494 1494 1494 1493 1493 1492 1491 1491 1490 1490 1489 1489 1489 1488 1488 1487 1486 1486 1485 1484 1483 1481 1480 1479 1478 1476 1475 1473
1511 1513 1510 1501 1511 1511 1497 1496 1501 1502 1501 1500 1494 1489 1491 1492 1492 1491 1491 1490 1489 1489 1488 1487 1487 1487 1487 1486 1486 1485 1485 1484 1483 1482 1481 1480 1479 1478 1477 1476 1474 1473 1471 1470
1509 1510 1508 1503 1507 1497 1485 1495 1495 1496 1496 1496 1493 1490 1490 1490 1489 1488 1487 1487 1486 1485 1485 1484 1484 1483 1483 1483 1483 1482 1481 1481 1480 1479 1478 1477 1476 1475 1473 1472 1471 1469 1468 1467
1507 1507 1505 1502 1494 1483 1487 1493 1495 1495 1490 1489 1490 1488 1488 1488 1487 1485 1484 1484 1483 1482 1481 1481 1480 1480 1480 1480 1479 1478 1478 1477 1476 1475 1474 1473 1472 1471 1470 1468 1467 1466 1465 1463
1508 1508 1504 1502 1493 1480 1479 1491 1492 1494 1485 1484 1485 1485 1485 1486 1483 1481 1481 1481 1480 1479 1479 1478 1477 1477 1477 1476 1476 1475 1474 1473 1472 1471 1470 1469 1468 1467 1466 1465 1464 1462 1461 1459
1505 1505 1502 1497 1491 1479 1486 1490 1492 1486 1477 1481 1481 1481 1482 1482 1481 1480 1478 1478 1477 1476 1476 1475 1474 1474 1473 1473 1472 1471 1470 1469 1469 1468 1467 1466 1465 1464 1462 1461 1460 1459 1457 1455
1492 1493 1496 1494 1489 1480 1487 1488 1485 1479 1479 1479 1478 1479 1479 1478 1477 1476 1476 1475 1474 1474 1473 1472 1471 1471 1470 1469 1469 1467 1466 1466 1465 1464 1463 1462 1461 1460 1458 1457 1456 1455 1453 1451
1490 1488 1485 1485 1479 1479 1480 1479 1478 1478 1478 1477 1477 1476 1476 1475 1475 1474 1473 1472 1472 1471 1470 1469 1468 1467 1467 1466 1465 1464 1463 1462 1461 1460 1459 1458 1457 1456 1455 1453 1452 1451 1449 1448
1487 1489 1487 1484 1477 1477 1477 1476 1476 1476 1475 1474 1474 1473 1473 1472 1471 1471 1470 1469 1469 1468 1467 1466 1465 1464 1463 1462 1461 1461 1460 1458 1457 1456 1455 1454 1453 1452 1451 1450 1448 1447 1446 1444
1481 1484 1483 1479 1476 1475 1473 1473 1473 1472 1472 1471 1471 1470 1469 1469 1468 1467 1467 1466 1465 1464 1464 1463 1461 1461 1460 1459 1458 1457 1456 1455 1454 1453 1451 1450 1449 1448 1447 1446 1445 1443 1442 1441
1479 1479 1477 1470 1471 1472 1470 1469 1469 1469 1468 1467 1466 1466 1466 1466 1464 1464 1463 1463 1462 1461 1460 1459 1458 1457 1456 1455 1454 1453 1452 1451 1450 1449 1448 1447 1445 1444 1443 1442 1441 1439 1438 1437